Temperature
17 17 17 16 16 16 16 16 15 15 15 15 15 15 15 15 14 15 14 14 14 14 14 14 14 14 14 14 14 14 14 14 14 13 13 13 13 13 13 13 13 13 13
17 17 17 17 16 16 16 16 16 15 15 15 15 15 15 15 14 14 14 14 14 14 14 14 14 14 14 14 14 14 14 13 13 13 12 12 12 13 13 12 12 12 12
18 17 17 17 16 16 16 16 16 16 15 15 15 15 15 15 15 14 14 14 14 14 14 14 14 14 14 14 14 13 13 13 13 13 13 12 12 12 12 12 12 12 12
18 17 17 17 16 16 16 16 16 16 16 15 15 15 15 15 15 14 14 14 14 14 14 14 14 14 13 13 13 13 13 13 13 13 12 12 12 12 12 12 12 12 12
18 17 17 17 17 16 16 16 16 16 16 16 15 15 15 15 15 15 14 14 14 14 14 14 14 14 14 14 13 13 13 13 13 12 12 12 12 12 12 12 12 11 11
18 18 17 17 17 17 16 16 16 16 16 16 15 15 15 15 15 15 15 14 14 14 14 14 13 14 14 14 14 13 13 13 12 12 12 12 12 12 12 11 11 11 11
18 18 18 17 17 17 17 16 16 16 16 16 16 15 15 15 15 15 15 14 14 14 14 13 13 14 13 13 13 13 13 13 13 12 12 12 12 11 11 11 11 11 11
18 18 18 18 17 17 17 17 16 16 16 16 16 16 15 15 15 15 15 14 14 14 14 13 13 13 13 13 13 13 12 13 13 12 12 12 12 11 11 11 11 10 10
18 18 18 18 17 17 17 17 16 16 16 16 16 16 15 15 15 15 15 14 14 14 14 13 13 13 13 13 13 12 12 12 12 12 12 12 12 12 11 11 10 10 10
18 18 18 18 18 17 17 17 16 16 16 16 16 15 15 15 15 15 14 14 14 14 14 13 13 13 13 13 13 12 12 12 12 12 12 12 11 11 11 11 10 10 10
18 18 18 18 18 17 17 17 16 16 16 16 15 15 15 15 15 15 15 14 14 13 13 13 13 13 13 13 12 12 12 12 11 11 11 11 11 11 11 10 10 10 9
18 18 18 18 17 17 17 17 16 16 16 16 15 15 15 15 15 15 15 14 14 14 13 13 13 13 13 13 12 12 12 12 11 11 11 10 10 10 10 10 10 10 9
18 18 18 18 18 17 17 17 16 16 16 15 15 15 15 15 15 15 14 14 14 14 13 13 13 13 12 12 12 12 12 11 11 10 10 10 10 10 10 10 9 9 9
18 18 18 17 17 17 17 17 16 16 16 16 15 15 15 15 15 15 14 14 14 13 13 13 13 12 12 12 12 11 11 11 11 10 10 10 10 10 9 9 9 8 8
17 17 17 17 17 17 17 17 16 16 16 16 16 15 15 15 15 15 15 14 14 13 13 13 12 12 12 12 11 11 11 11 11 10 10 10 9 9 9 9 8 8 8
17 17 17 17 17 16 16 16 16 16 16 16 16 15 15 15 15 14 14 14 13 13 13 12 12 12 12 12 11 11 11 11 10 10 10 9 9 9 8 8 8 8 8
16 16 16 16 16 16 16 16 16 16 16 16 15 15 15 15 14 14 14 13 13 13 12 12 12 12 12 11 11 11 11 10 10 10 9 9 9 8 8 8 8 7 7
16 16 16 16 16 16 16 15 15 15 15 15 15 15 15 14 14 14 13 13 13 12 12 12 12 11 11 11 11 10 10 10 10 9 9 9 8 8 8 8 7 7 7
15 15 15 15 15 15 15 15 14 14 14 14 14 14 14 14 14 13 13 12 12 12 12 12 11 11 11 10 10 10 10 10 9 9 9 8 8 8 7 7 7 6 6
15 15 15 15 15 15 14 14 14 14 13 13 13 14 13 13 13 13 12 12 12 11 11 11 11 11 10 10 10 10 9 9 9 9 8 8 8 7 7 7 6 6 6
14 14 14 14 14 14 14 14 13 13 13 13 13 13 13 13 12 12 12 11 11 11 10 10 10 10 10 10 9 9 9 8 8 8 8 7 7 7 6 6 6 5 5
14 14 14 13 13 13 13 13 13 13 12 12 12 12 12 12 11 11 11 11 10 10 10 10 9 9 9 9 9 8 8 8 7 7 7 7 6 6 6 6 5 5 5
13 13 13 13 13 13 13 12 12 12 12 11 11 11 11 11 10 10 10 10 10 9 9 9 9 8 8 8 8 7 7 7 7 6 6 6 6 5 5 5 5 4 4
13 13 12 12 12 12 12 12 11 11 11 11 10 10 10 10 10 10 9 9 9 9 8 8 8 7 7 7 7 7 6 6 6 6 5 5 5 5 4 4 4 3 3
12 12 12 11 11 11 11 11 11 10 10 10 10 9 9 9 9 9 9 8 8 8 8 7 7 7 6 6 6 6 6 6 5 5 5 4 4 4 4 3 3 3 2
11 11 11 10 10 10 10 10 10 9 9 9 9 9 8 8 8 8 8 7 7 7 7 6 6 6 6 5 5 5 5 5 4 4 4 4 3 3 3 2 2 2 2
Wind_Speed
10 9 9 8 7 7 5 5 5 5 5 4 3 4 4 4 4 4 4 4 5 5 5 5 5 4 3 3 2 2 2 2 3 3 3 3 4 5 5 5 5 6 9
11 10 9 8 8 8 7 6 6 5 4 4 4 4 4 4 4 4 4 4 5 5 5 5 5 4 4 3 2 3 3 3 3 3 3 3 4 4 4 4 5 6 7
11 11 10 9 9 8 8 6 6 5 5 5 5 4 4 4 4 4 4 4 4 4 4 4 4 4 3 3 3 3 3 3 2 2 3 2 2 3 2 3 4 4 5
12 11 11 10 9 8 8 7 6 6 6 5 5 4 4 4 4 4 4 4 4 4 4 3 3 3 3 3 3 3 2 3 2 2 2 2 2 2 2 2 2 3 3
13 12 11 10 9 8 8 7 6 6 6 5 5 5 4 3 3 3 3 3 3 4 3 3 4 5 6 4 2 2 2 2 2 1 1 1 1 1 2 2 2 2 2
13 12 11 11 10 9 9 8 8 7 6 6 6 5 5 3 4 1 1 3 3 3 3 3 4 4 4 4 4 5 4 1 1 0 0 1 2 2 2 2 2 2 2
14 12 11 11 10 10 9 9 8 7 7 6 6 5 5 5 7 5 2 2 2 2 2 2 2 2 3 3 5 5 2 3 3 3 2 2 2 2 2 2 2 3 3
14 13 12 11 11 10 10 9 9 8 7 6 6 6 5 5 7 7 6 5 3 3 2 2 2 2 2 1 2 2 1 1 1 1 2 2 2 2 3 3 3 3 2
14 13 13 12 12 11 11 11 9 8 7 7 6 6 6 6 8 8 7 5 4 4 3 2 2 3 4 1 2 2 2 1 3 2 3 2 3 3 4 3 3 3 3
14 13 13 12 12 12 12 10 9 8 7 6 6 6 7 6 9 10 9 5 5 5 4 4 2 2 3 3 4 3 3 2 2 3 3 4 3 1 2 3 3 4 4
12 12 12 12 12 11 10 9 9 8 7 7 7 6 6 6 9 10 9 7 6 5 5 4 4 6 4 4 5 3 2 2 2 2 2 2 2 1 2 2 3 3 4
10 11 11 11 10 9 9 9 9 8 8 8 7 6 5 5 5 8 9 8 5 6 5 4 4 8 6 5 4 2 2 4 3 3 3 3 3 2 2 3 3 4 5
10 10 10 10 9 9 9 10 9 8 7 7 7 7 6 5 6 8 9 9 7 6 4 2 4 7 7 6 6 5 6 5 4 4 4 4 3 3 3 3 4 5 6
10 9 9 9 9 9 7 8 8 8 8 8 7 7 6 6 6 6 7 8 8 7 6 5 6 6 6 4 5 6 6 5 5 5 5 4 4 4 4 4 4 4 5
9 8 8 7 7 8 7 6 8 7 7 7 7 7 6 6 6 7 7 7 7 7 6 5 6 6 6 6 6 6 6 6 6 6 6 6 5 5 5 5 5 6 7
8 7 6 6 6 6 6 5 2 2 3 4 3 4 5 4 5 8 8 7 6 7 6 6 7 7 7 7 7 7 7 7 7 7 6 6 6 6 6 6 6 7 7
7 6 5 5 6 6 6 6 5 3 3 4 5 5 5 4 6 8 9 8 8 9 7 7 7 7 7 7 7 7 7 7 7 7 7 7 7 7 7 7 7 7 8
6 6 5 5 5 5 5 5 5 5 4 3 5 7 7 7 7 7 8 7 6 7 8 8 8 7 7 7 7 7 7 7 7 7 7 7 7 8 8 8 8 9 9
5 4 4 4 4 4 4 4 4 5 4 3 3 4 6 6 6 6 9 7 7 7 8 8 8 7 7 7 7 7 8 7 8 7 7 8 8 8 8 9 9 9 9
4 4 4 4 4 4 4 4 4 4 4 3 3 3 4 4 4 5 6 6 6 7 7 7 7 7 7 7 7 7 8 8 8 8 8 8 8 8 9 10 9 9 9
4 5 5 4 4 4 4 4 3 3 3 3 3 2 4 4 4 5 5 5 6 6 6 6 5 5 6 6 6 7 9 8 8 8 8 8 8 8 8 8 9 9 9
4 4 4 4 3 3 3 3 3 3 3 3 2 2 5 4 4 4 4 5 5 5 5 5 5 5 5 5 6 6 7 8 7 7 7 7 7 8 8 8 9 9 9
3 3 3 3 3 3 3 3 3 3 3 3 3 2 3 4 4 4 4 4 4 4 4 4 5 4 5 5 6 6 7 7 6 6 7 7 7 8 8 9 10 11 11
3 3 3 3 2 2 2 2 2 2 2 2 2 2 3 3 3 4 4 3 3 3 4 4 5 5 6 5 5 6 6 6 6 6 8 8 8 8 9 9 10 11 11
3 2 2 2 2 2 2 2 2 2 2 2 2 2 3 3 3 3 3 3 3 3 4 4 4 5 6 7 6 5 4 4 6 7 7 8 9 9 10 11 10 11 11
2 2 2 1 1 1 1 1 1 1 2 2 2 2 2 3 3 3 3 3 3 3 3 4 4 5 6 6 6 5 4 5 7 8 8 8 9 9 10 10 12 11 12
Wind_Direction
178 175 171 170 169 168 165 157 156 150 147 135 122 116 110 108 105 96 88 91 93 96 96 93 87 82 90 84 78 78 67 74 102 96 86 74 66 56 51 48 50 56 62
178 176 175 168 172 172 168 168 169 159 152 144 133 126 114 106 103 104 101 97 91 89 92 95 94 93 85 77 71 80 83 86 105 106 95 71 59 53 49 48 52 55 61
178 179 177 174 178 177 173 169 170 165 164 159 151 143 133 123 119 118 114 107 99 93 92 93 94 99 99 93 86 83 84 86 93 106 85 68 60 50 48 50 58 50 56
178 182 181 181 182 181 175 174 173 169 169 168 161 154 144 140 139 131 124 118 110 104 100 94 86 89 91 102 101 95 95 97 93 93 87 84 69 40 26 28 36 36 30
181 185 185 182 179 179 175 177 175 173 173 169 169 166 158 161 152 150 140 133 125 120 117 106 86 65 44 45 58 91 109 116 112 96 84 73 57 31 12 351 0 355 30
185 187 183 182 178 181 181 180 180 180 180 176 181 176 173 170 129 135 205 157 147 142 135 128 123 120 111 100 62 39 19 24 47 49 2 13 10 11 352 328 335 326 339
187 187 182 184 181 184 180 180 183 185 183 186 190 185 188 166 150 167 206 197 174 167 160 149 134 130 161 147 143 156 108 50 354 318 323 339 332 346 321 317 331 329 328
188 187 184 184 183 181 182 185 187 185 185 190 193 193 191 175 162 172 184 197 189 186 186 183 178 171 152 172 168 160 129 90 33 298 319 338 342 339 314 308 310 296 291
190 190 188 187 186 186 189 192 188 187 189 191 189 194 198 183 167 177 196 194 195 196 194 198 208 190 122 211 214 199 190 155 107 89 37 22 13 348 311 278 284 286 299
193 192 190 191 190 192 193 191 186 188 190 189 189 197 202 201 171 184 210 207 206 199 197 200 185 227 149 215 220 220 228 224 203 176 187 201 224 196 230 273 293 289 299
188 187 187 191 194 194 191 187 184 185 187 193 191 195 202 207 175 185 208 218 213 208 205 207 191 171 192 220 249 240 247 268 236 238 242 243 251 265 257 267 287 287 288
178 182 186 189 189 187 184 184 184 183 187 194 198 198 200 199 197 188 199 223 245 220 216 212 184 164 185 208 222 194 202 245 243 245 250 256 261 266 276 282 276 273 276
174 179 183 184 186 185 183 182 184 188 197 200 201 204 201 197 190 185 194 204 219 227 224 174 158 168 186 203 204 211 218 231 238 245 252 257 263 271 273 270 268 268 270
175 178 179 183 183 184 185 188 191 194 200 204 205 208 205 197 199 193 196 198 199 213 218 185 178 188 210 224 210 212 226 236 242 248 255 257 256 253 254 259 263 265 269
173 174 176 180 183 185 187 196 201 203 207 207 207 207 206 209 206 194 197 200 201 203 200 203 210 211 215 220 226 228 230 229 231 239 246 250 250 251 255 257 263 268 270
172 173 174 176 181 184 183 184 176 225 176 207 231 229 218 212 164 176 194 201 190 174 193 216 221 224 228 230 232 231 230 232 236 239 242 247 251 255 258 254 254 262 270
172 172 172 177 179 184 187 189 189 183 179 202 211 221 232 205 188 190 193 192 188 183 210 227 230 231 233 234 235 237 238 237 236 237 241 247 251 255 258 260 260 263 268
170 164 167 174 180 184 189 194 198 196 197 206 205 206 213 211 202 196 186 180 197 204 226 233 235 236 237 239 239 239 241 240 237 238 241 246 250 255 259 261 262 265 271
163 163 166 169 173 178 182 190 197 201 206 202 191 176 185 192 188 185 180 206 218 221 226 234 238 240 241 242 243 242 242 242 242 240 243 246 251 255 259 262 266 266 268
152 140 152 162 165 170 179 187 194 198 203 203 202 193 167 180 197 193 203 221 229 233 234 236 238 240 242 243 244 243 243 243 244 244 247 249 252 255 259 262 266 268 267
150 146 150 162 167 171 178 187 191 196 202 206 208 185 178 196 207 210 214 224 234 241 243 243 244 244 244 245 246 246 248 250 249 250 252 253 255 257 261 264 266 266 269
152 153 162 169 169 174 181 189 194 197 205 211 213 187 184 214 223 224 227 232 237 243 246 245 247 246 246 247 248 250 253 256 257 257 257 258 259 260 262 263 264 268 271
151 151 155 162 167 162 180 191 198 206 213 217 215 207 202 220 227 232 237 243 246 247 247 247 252 253 251 253 255 257 260 262 265 268 266 265 264 263 264 265 267 272 271
143 150 155 158 161 172 186 196 204 215 224 228 227 228 230 233 238 239 243 247 246 246 246 248 253 256 257 259 260 258 262 269 274 273 269 269 269 270 270 270 270 270 272
134 141 148 152 160 174 187 198 208 216 228 239 243 245 248 249 252 252 249 249 250 254 256 257 259 260 261 262 264 267 273 280 278 278 274 268 268 269 271 272 271 274 273
120 125 135 144 151 165 190 215 233 242 247 254 257 259 260 260 262 265 263 258 261 263 263 261 262 267 270 268 268 273 278 275 272 272 272 270 268 269 271 272 274 274 276
Height
1567 1569 1571 1573 1574 1576 1577 1578 1579 1579 1580 1580 1580 1580 1580 1580 1579 1579 1579 1578 1578 1578 1578 1578 1578 1578 1578 1578 1578 1578 1578 1579 1579 1579 1578 1577 1576 1576 1575 1574 1573 1572 1570
1565 1568 1570 1572 1574 1575 1577 1578 1579 1580 1580 1580 1580 1581 1581 1581 1580 1580 1580 1580 1580 1580 1579 1579 1579 1579 1579 1579 1579 1579 1579 1579 1579 1579 1579 1578 1577 1576 1575 1574 1574 1573 1571
1564 1567 1569 1571 1573 1575 1576 1577 1578 1579 1580 1580 1581 1581 1581 1581 1581 1581 1581 1581 1581 1581 1581 1581 1580 1580 1580 1580 1580 1580 1580 1579 1580 1580 1580 1578 1578 1576 1575 1575 1574 1573 1572
1561 1565 1567 1570 1572 1574 1576 1577 1578 1579 1580 1580 1581 1581 1582 1582 1582 1582 1582 1582 1582 1581 1581 1581 1581 1581 1581 1581 1580 1580 1580 1580 1580 1580 1580 1579 1578 1577 1576 1575 1574 1573 1572
1559 1562 1565 1568 1570 1572 1574 1576 1577 1578 1579 1580 1581 1581 1581 1582 1582 1583 1583 1582 1582 1582 1582 1582 1581 1581 1580 1580 1581 1581 1581 1581 1581 1580 1580 1579 1578 1577 1576 1575 1574 1573 1572
1556 1560 1563 1566 1568 1570 1572 1574 1576 1577 1578 1579 1580 1581 1581 1581 1582 1582 1582 1583 1583 1583 1582 1582 1581 1581 1580 1580 1580 1580 1581 1581 1581 1580 1580 1579 1578 1577 1575 1575 1574 1573 1572
1554 1557 1560 1563 1566 1568 1571 1572 1574 1575 1577 1578 1579 1579 1580 1581 1581 1582 1582 1582 1582 1583 1583 1582 1581 1580 1580 1580 1580 1580 1580 1579 1580 1579 1579 1578 1577 1576 1575 1574 1573 1572 1571
1551 1554 1557 1560 1563 1566 1568 1570 1572 1574 1575 1576 1577 1578 1579 1579 1580 1581 1581 1581 1581 1581 1581 1581 1581 1580 1580 1580 1580 1580 1579 1579 1578 1578 1577 1576 1575 1574 1573 1573 1571 1570 1569
1547 1550 1554 1557 1560 1563 1565 1568 1570 1571 1573 1574 1575 1576 1577 1578 1578 1579 1580 1580 1580 1580 1580 1580 1580 1579 1579 1579 1579 1579 1578 1577 1576 1576 1575 1574 1573 1572 1571 1571 1570 1569 1568
1543 1547 1550 1554 1557 1560 1562 1565 1567 1569 1570 1572 1573 1574 1575 1575 1576 1577 1577 1578 1578 1578 1578 1578 1578 1578 1577 1577 1577 1577 1577 1576 1575 1574 1573 1572 1571 1570 1569 1569 1568 1567 1566
1540 1544 1547 1550 1554 1557 1559 1561 1564 1565 1567 1569 1570 1571 1572 1572 1573 1574 1575 1575 1576 1576 1576 1575 1575 1575 1575 1575 1575 1575 1574 1574 1573 1572 1572 1571 1570 1569 1567 1566 1565 1564 1564
1537 1540 1544 1547 1550 1553 1556 1558 1560 1562 1564 1565 1566 1567 1568 1569 1570 1570 1571 1572 1573 1573 1573 1573 1573 1573 1573 1572 1572 1572 1572 1571 1571 1570 1569 1568 1567 1566 1565 1564 1562 1561 1560
1534 1537 1541 1544 1547 1549 1552 1554 1556 1558 1560 1561 1563 1564 1565 1566 1566 1567 1568 1568 1569 1569 1570 1570 1570 1570 1569 1569 1569 1569 1569 1568 1568 1567 1567 1566 1564 1563 1562 1560 1559 1558 1556
1532 1535 1538 1541 1543 1546 1548 1550 1552 1554 1556 1557 1559 1560 1561 1562 1563 1563 1564 1564 1565 1565 1566 1566 1566 1566 1566 1566 1565 1565 1565 1564 1564 1564 1563 1562 1561 1560 1558 1557 1556 1554 1553
1529 1532 1535 1537 1540 1542 1544 1547 1549 1550 1552 1554 1555 1556 1557 1558 1559 1560 1560 1561 1561 1562 1562 1562 1562 1562 1562 1562 1561 1561 1561 1561 1560 1559 1559 1558 1557 1556 1555 1554 1552 1551 1550
1526 1529 1532 1534 1537 1539 1541 1543 1545 1547 1548 1550 1551 1552 1553 1555 1555 1556 1556 1557 1557 1558 1558 1558 1557 1558 1557 1557 1557 1557 1557 1556 1556 1555 1555 1554 1553 1552 1551 1550 1548 1547 1545
1524 1526 1529 1531 1533 1535 1537 1539 1541 1543 1544 1545 1546 1548 1549 1550 1551 1552 1552 1553 1553 1553 1553 1553 1553 1553 1553 1553 1552 1552 1552 1552 1551 1550 1550 1549 1548 1547 1546 1545 1544 1542 1541
1522 1524 1526 1528 1530 1532 1534 1536 1537 1539 1540 1541 1542 1543 1544 1545 1546 1547 1548 1548 1548 1548 1548 1548 1548 1548 1548 1548 1547 1547 1547 1546 1546 1545 1545 1544 1543 1542 1541 1540 1538 1537 1535
1520 1521 1523 1525 1527 1529 1531 1532 1534 1535 1536 1537 1538 1539 1540 1541 1541 1542 1542 1542 1542 1543 1543 1543 1543 1542 1542 1542 1542 1541 1541 1541 1540 1540 1539 1538 1537 1536 1535 1534 1532 1531 1529
1517 1519 1521 1523 1524 1526 1527 1529 1530 1531 1532 1533 1534 1535 1535 1536 1536 1536 1537 1537 1537 1537 1537 1537 1537 1537 1537 1536 1536 1536 1535 1535 1534 1534 1533 1532 1531 1530 1529 1527 1526 1524 1522
1515 1517 1519 1520 1522 1523 1524 1526 1527 1528 1529 1529 1530 1531 1531 1531 1531 1532 1532 1532 1532 1532 1532 1531 1531 1531 1530 1530 1530 1530 1529 1529 1528 1527 1527 1526 1525 1523 1522 1521 1519 1517 1516
1514 1515 1516 1518 1519 1520 1521 1522 1523 1524 1525 1526 1526 1526 1526 1527 1527 1527 1527 1527 1527 1527 1526 1526 1526 1525 1525 1524 1524 1523 1523 1523 1522 1521 1520 1519 1518 1517 1515 1514 1512 1511 1509
1512 1513 1514 1515 1516 1517 1518 1519 1520 1520 1521 1521 1522 1522 1522 1522 1522 1522 1522 1521 1521 1521 1521 1520 1520 1519 1519 1518 1518 1517 1517 1516 1515 1514 1514 1512 1511 1510 1509 1507 1505 1504 1502
1509 1511 1512 1512 1513 1514 1515 1516 1516 1517 1517 1517 1517 1517 1517 1517 1517 1517 1517 1516 1516 1515 1515 1514 1514 1514 1513 1512 1511 1511 1510 1509 1508 1507 1507 1505 1504 1503 1501 1499 1498 1496 1494
1507 1508 1509 1509 1510 1511 1512 1512 1512 1513 1513 1513 1513 1513 1513 1512 1512 1512 1511 1511 1510 1510 1509 1508 1508 1508 1507 1506 1505 1504 1504 1503 1502 1501 1499 1498 1497 1495 1493 1492 1490 1488 1487
1505 1505 1506 1507 1507 1508 1508 1509 1509 1509 1509 1509 1509 1508 1508 1508 1507 1506 1506 1506 1505 1504 1504 1503 1502 1502 1501 1500 1499 1498 1497 1496 1495 1494 1493 1491 1489 1487 1486 1484 1482 1480 1479